Home   Weather   Gävle   Past weeks

Flag for Sweden Past Weather in Gävle, Sweden — Yesterday and Last 2 Weeks

Now
49 °F

Clear.


Feels Like: 49 °F
Forecast: 49 / 64 °F
Wind: No wind

Location: Films Kyrkby

Current Time: Sep 26, 2016 at 4:04:59 AM

Latest Report: Sep 26, 2016 at 3:00 AM


Visibility: 1 mi

Pressure: 30.19 "Hg

Humidity: 100%

Dew Point: 49 °F

Location of GävleLocation

Past Weather in Gävle — Graph

°F

Gävle Temperature Yesterday

Maximum temperature yesterday: 64 °F (at 4:00 PM)
Minimum temperature yesterday: 48 °F (at 2:00 AM)
Average temperature yesterday: 55 °F

High & Low Weather Summary for the Past Weeks

 TemperatureHumidityPressure
High73 °F (Sep 11, 3:00 PM)100% (Sep 11, 5:00 AM)30.27 "Hg (Sep 11, 5:00 AM)
Low35 °F (Sep 17, 4:00 AM)40% (Sep 12, 4:00 PM)29.82 "Hg (Sep 11, 3:00 PM)
Average53 °F86%30.14 "Hg
* Reported Sep 11 2:00 AM — Sep 26 2:00 AM, Gävle, Weather by CustomWeather, © 2016

Note: Actual official high and low records may vary slightly from our data, if they occured in-between our weather recording intervals... More about our weather records

Advertising

Gävle Weather History for the Previous 24 Hours

Scroll right to see more
 ConditionsComfort  
Time TempWeatherWind HumidityBarometerVisibility
2:00 AM
Mon, Sep 26
48 °FClear.No wind100%30.19 "Hg1 mi
1:00 AM48 °FClear.No wind100%30.19 "Hg0 mi
12:00 AM49 °FPassing clouds.No wind98%30.19 "Hg11 mi
11:00 PM
Sun, Sep 25
51 °FPassing clouds.1 mph94%30.19 "Hg25 mi
10:00 PM52 °FClear.2 mph88%30.18 "Hg31 mi
9:00 PM51 °FOvercast.1 mph93%30.17 "Hg25 mi
8:00 PM52 °FClear.1 mph94%30.16 "Hg19 mi
7:00 PM54 °FClear.1 mph90%30.16 "Hg18 mi
6:00 PM59 °FSunny.1 mph75%30.14 "Hg25 mi
5:00 PM64 °FScattered clouds.2 mph64%30.14 "Hg19 mi
4:00 PM64 °FOvercast.2 mph67%30.14 "Hg25 mi
3:00 PM64 °FScattered clouds.3 mph67%30.14 "Hg25 mi
2:00 PM62 °FScattered clouds.3 mph71%30.14 "Hg22 mi
1:00 PM61 °FPassing clouds.3 mph73%30.14 "Hg22 mi
12:00 PM60 °FOvercast.3 mph78%30.14 "Hg31 mi
11:00 AM60 °FPartly sunny.3 mph75%30.13 "Hg22 mi
10:00 AM59 °FScattered clouds.3 mph77%30.13 "Hg22 mi
9:00 AM53 °FSunny.2 mph89%30.13 "Hg25 mi
8:00 AM52 °FScattered clouds.2 mph91%30.12 "Hg19 mi
7:00 AM52 °FOvercast.2 mph92%30.11 "Hg25 mi
6:00 AM51 °FOvercast.2 mph93%30.11 "Hg25 mi
5:00 AM50 °FOvercast.2 mph94%30.12 "Hg25 mi
4:00 AM50 °FOvercast.2 mph92%30.11 "Hg28 mi
Weather by CustomWeather, © 2016

See weather overviewHow to use our weather pages